| time (UTC) | temp F | wind direction | speed knots | gust knots | rain 1hr in | rain 24hr in | rain mn in | humidity % | barometer mb |
| 20260507154239 | 78 | 91 | 0.9 | 0.9 | 0.00 | 0.00 | 0.00 | 22 | 1014.7 |
| 20260507153735 | 78 | 93 | 0.0 | 1.7 | 0.00 | 0.00 | 0.00 | 23 | 1014.7 |
| 20260507153232 | 77 | 147 | 0.0 | 0.9 | 0.00 | 0.00 | 0.00 | 24 | 1014.4 |
| 20260507152728 | 76 | 126 | 1.7 | 1.7 | 0.00 | 0.00 | 0.00 | 23 | 1014.6 |
| 20260507152225 | 75 | 54 | 0.9 | 0.9 | 0.00 | 0.00 | 0.00 | 25 | 1014.4 |
| 20260507151721 | 75 | 53 | 0.0 | 0.9 | 0.00 | 0.00 | 0.00 | 25 | 1014.7 |
| 20260507151217 | 75 | 65 | 0.9 | 0.9 | 0.00 | 0.00 | 0.00 | 26 | 1014.6 |
| 20260507150714 | 74 | 66 | 0.0 | 0.9 | 0.00 | 0.00 | 0.00 | 26 | 1014.6 |
| 20260507150211 | 74 | 79 | 0.0 | 0.9 | 0.00 | 0.00 | 0.00 | 27 | 1014.4 |
| 20260507145707 | 73 | 41 | 0.9 | 0.9 | 0.00 | 0.00 | 0.00 | 28 | 1014.4 |
| 20260507145204 | 73 | 41 | 0.0 | 0.9 | 0.00 | 0.00 | 0.00 | 27 | 1014.4 |
| 20260507144700 | 73 | 41 | 0.9 | 0.9 | 0.00 | 0.00 | 0.00 | 27 | 1014.2 |
| 20260507144159 | 72 | 40 | 0.0 | 0.0 | 0.00 | 0.00 | 0.00 | 28 | 1014.6 |
| 20260507143655 | 72 | 40 | 0.9 | 0.9 | 0.00 | 0.00 | 0.00 | 27 | 1014.7 |
| 20260507143152 | 71 | 40 | 0.9 | 0.9 | 0.00 | 0.00 | 0.00 | 28 | 1014.6 |
| 20260507142647 | 71 | 45 | 0.0 | 1.7 | 0.00 | 0.00 | 0.00 | 27 | 1014.4 |
| 20260507142145 | 70 | 44 | 0.9 | 1.7 | 0.00 | 0.00 | 0.00 | 29 | 1014.3 |
| 20260507141641 | 69 | 65 | 0.0 | 0.9 | 0.00 | 0.00 | 0.00 | 31 | 1014.3 |
| 20260507141138 | 68 | 65 | 0.0 | 0.9 | 0.00 | 0.00 | 0.00 | 32 | 1014.3 |
| 20260507140634 | 67 | 65 | 0.0 | 0.0 | 0.00 | 0.00 | 0.00 | 36 | 1014.4 |
| 20260507140132 | 66 | 65 | 0.0 | 0.0 | 0.00 | 0.00 | 0.00 | 36 | 1014.4 |
| 20260507135628 | 66 | 65 | 0.0 | 0.0 | 0.00 | 0.00 | 0.00 | 36 | 1014.3 |
| 20260507135126 | 65 | 65 | 0.0 | 0.0 | 0.00 | 0.00 | 0.00 | 37 | 1014.4 |
| 20260507134622 | 65 | 65 | 0.0 | 0.0 | 0.00 | 0.00 | 0.00 | 37 | 1014.4 |
| 20260507134118 | 64 | 65 | 0.0 | 0.0 | 0.00 | 0.00 | 0.00 | 37 | 1014.2 |
| 20260507133614 | 64 | 65 | 0.0 | 0.0 | 0.00 | 0.00 | 0.00 | 36 | 1014.1 |
| 20260507133112 | 64 | 65 | 0.0 | 0.0 | 0.00 | 0.00 | 0.00 | 36 | 1014.0 |
| 20260507132609 | 63 | 65 | 0.0 | 0.0 | 0.00 | 0.00 | 0.00 | 37 | 1014.1 |
| 20260507132105 | 62 | 65 | 0.0 | 0.0 | 0.00 | 0.00 | 0.00 | 37 | 1014.0 |
| 20260507131602 | 63 | 65 | 0.0 | 0.0 | 0.00 | 0.00 | 0.00 | 38 | 1014.0 |
| 20260507131100 | 62 | 65 | 0.0 | 0.0 | 0.00 | 0.00 | 0.00 | 37 | 1014.1 |
| 20260507130556 | 62 | 65 | 0.0 | 0.0 | 0.00 | 0.00 | 0.00 | 36 | 1014.0 |
| 20260507130054 | 62 | 65 | 0.0 | 0.0 | 0.00 | 0.00 | 0.00 | 36 | 1013.9 |
| 20260507125553 | 62 | 65 | 0.0 | 0.0 | 0.00 | 0.00 | 0.00 | 36 | 1014.0 |
| 20260507125050 | 62 | 65 | 0.0 | 0.0 | 0.00 | 0.00 | 0.00 | 37 | 1013.8 |
| 20260507124546 | 62 | 65 | 0.0 | 0.0 | 0.00 | 0.00 | 0.00 | 36 | 1013.9 |
| 20260507124044 | 62 | 65 | 0.0 | 0.0 | 0.00 | 0.00 | 0.00 | 36 | 1014.0 |
| 20260507123542 | 63 | 65 | 0.0 | 0.0 | 0.00 | 0.00 | 0.00 | 35 | 1014.0 |
| 20260507123038 | 64 | 65 | 0.0 | 0.0 | 0.00 | 0.00 | 0.00 | 36 | 1013.8 |
| 20260507122533 | 64 | 65 | 0.0 | 0.0 | 0.00 | 0.00 | 0.00 | 33 | 1013.9 |
| 20260507122030 | 64 | 65 | 0.9 | 0.9 | 0.00 | 0.00 | 0.00 | 33 | 1013.8 |
| 20260507121525 | 65 | 64 | 0.0 | 0.0 | 0.00 | 0.00 | 0.00 | 35 | 1013.9 |
| 20260507121021 | 65 | 64 | 0.0 | 0.0 | 0.00 | 0.00 | 0.00 | 32 | 1013.7 |
| 20260507120518 | 65 | 64 | 0.0 | 0.9 | 0.00 | 0.00 | 0.00 | 32 | 1013.7 |
| 20260507120015 | 66 | 66 | 0.0 | 0.0 | 0.00 | 0.00 | 0.00 | 32 | 1013.8 |
| 20260507115511 | 66 | 67 | 0.0 | 0.0 | 0.00 | 0.00 | 0.00 | 31 | 1013.7 |
| 20260507115007 | 66 | 67 | 0.0 | 0.0 | 0.00 | 0.00 | 0.00 | 31 | 1013.7 |
| 20260507114503 | 66 | 67 | 0.0 | 0.0 | 0.00 | 0.00 | 0.00 | 31 | 1013.9 |
| 20260507114000 | 66 | 67 | 0.9 | 0.9 | 0.00 | 0.00 | 0.00 | 31 | 1013.8 |
| 20260507113458 | 66 | 74 | 0.0 | 0.9 | 0.00 | 0.00 | 0.00 | 31 | 1013.9 |
| 20260507112954 | 66 | 55 | 0.0 | 0.0 | 0.00 | 0.00 | 0.00 | 32 | 1014.0 |
| 20260507112452 | 66 | 55 | 0.0 | 0.0 | 0.00 | 0.00 | 0.00 | 32 | 1014.0 |
| 20260507111949 | 66 | 55 | 0.0 | 0.0 | 0.00 | 0.00 | 0.00 | 31 | 1014.0 |
| 20260507111446 | 66 | 55 | 0.0 | 0.0 | 0.00 | 0.00 | 0.00 | 30 | 1014.0 |
| 20260507110942 | 67 | 55 | 0.0 | 0.0 | 0.00 | 0.00 | 0.00 | 30 | 1014.1 |
| 20260507110438 | 67 | 58 | 0.0 | 0.0 | 0.00 | 0.00 | 0.00 | 29 | 1014.0 |
| 20260507105935 | 67 | 59 | 0.0 | 0.9 | 0.00 | 0.00 | 0.00 | 29 | 1014.0 |
| 20260507105432 | 67 | 59 | 0.0 | 0.0 | 0.00 | 0.00 | 0.00 | 29 | 1014.1 |
| 20260507104929 | 67 | 59 | 0.9 | 0.9 | 0.00 | 0.00 | 0.00 | 29 | 1014.1 |
| 20260507104426 | 67 | 59 | 0.0 | 0.0 | 0.00 | 0.00 | 0.00 | 29 | 1014.1 |
| 20260507103927 | 66 | 59 | 0.0 | 0.0 | 0.00 | 0.00 | 0.00 | 30 | 1014.2 |
| 20260507103424 | 66 | 59 | 0.0 | 0.0 | 0.00 | 0.00 | 0.00 | 31 | 1014.2 |
| 20260507102919 | 66 | 59 | 0.0 | 0.0 | 0.00 | 0.00 | 0.00 | 30 | 1014.3 |
| 20260507102417 | 66 | 59 | 0.0 | 0.0 | 0.00 | 0.00 | 0.00 | 32 | 1014.2 |
| 20260507101913 | 66 | 59 | 0.0 | 0.0 | 0.00 | 0.00 | 0.00 | 31 | 1014.3 |
| 20260507101408 | 66 | 59 | 0.0 | 0.0 | 0.00 | 0.00 | 0.00 | 30 | 1014.3 |
| 20260507100905 | 66 | 59 | 0.0 | 0.0 | 0.00 | 0.00 | 0.00 | 31 | 1014.6 |
| 20260507100403 | 67 | 59 | 0.0 | 0.0 | 0.00 | 0.00 | 0.00 | 35 | 1014.7 |
| 20260507095901 | 67 | 59 | 0.0 | 0.0 | 0.00 | 0.00 | 0.00 | 29 | 1014.4 |
| 20260507095357 | 68 | 59 | 0.0 | 0.0 | 0.00 | 0.00 | 0.00 | 28 | 1014.4 |
| 20260507094854 | 69 | 59 | 0.0 | 0.0 | 0.00 | 0.00 | 0.00 | 27 | 1014.4 |
| 20260507094351 | 69 | 59 | 0.0 | 0.0 | 0.00 | 0.00 | 0.00 | 26 | 1014.4 |
| 20260507093848 | 69 | 59 | 0.0 | 0.0 | 0.00 | 0.00 | 0.00 | 26 | 1014.2 |
| 20260507093346 | 69 | 59 | 0.9 | 0.9 | 0.00 | 0.00 | 0.00 | 27 | 1014.1 |
| 20260507092844 | 69 | 59 | 0.0 | 0.9 | 0.00 | 0.00 | 0.00 | 27 | 1014.6 |
| 20260507092340 | 69 | 59 | 0.0 | 0.9 | 0.00 | 0.00 | 0.00 | 27 | 1014.4 |
| 20260507091836 | 69 | 40 | 1.7 | 1.7 | 0.00 | 0.00 | 0.00 | 27 | 1014.3 |
| 20260507091333 | 69 | 58 | 0.9 | 1.7 | 0.00 | 0.00 | 0.00 | 27 | 1014.6 |
| 20260507090829 | 69 | 55 | 0.0 | 0.9 | 0.00 | 0.00 | 0.00 | 26 | 1014.4 |
| 20260507090325 | 68 | 54 | 0.0 | 0.0 | 0.00 | 0.00 | 0.00 | 26 | 1014.2 |
| 20260507085822 | 68 | 281 | 0.0 | 0.0 | 0.00 | 0.00 | 0.00 | 30 | 1014.3 |
| 20260507085319 | 68 | 281 | 0.0 | 0.0 | 0.00 | 0.00 | 0.00 | 26 | 1014.3 |
| 20260507084817 | 68 | 281 | 0.0 | 0.0 | 0.00 | 0.00 | 0.00 | 26 | 1014.3 |
| 20260507084313 | 69 | 280 | 0.0 | 0.0 | 0.00 | 0.00 | 0.00 | 27 | 1014.4 |
| 20260507083810 | 69 | 280 | 0.0 | 0.0 | 0.00 | 0.00 | 0.00 | 26 | 1014.4 |
| 20260507083307 | 69 | 280 | 0.9 | 0.9 | 0.00 | 0.00 | 0.00 | 25 | 1014.6 |
| 20260507082802 | 68 | 262 | 0.0 | 0.0 | 0.00 | 0.00 | 0.00 | 26 | 1014.6 |
| 20260507082258 | 68 | 243 | 0.0 | 0.0 | 0.00 | 0.00 | 0.00 | 27 | 1014.4 |
| 20260507081755 | 68 | 243 | 0.0 | 0.0 | 0.00 | 0.00 | 0.00 | 27 | 1014.6 |
| 20260507081251 | 69 | 242 | 0.0 | 0.0 | 0.00 | 0.00 | 0.00 | 27 | 1014.7 |
| 20260507080748 | 69 | 242 | 0.0 | 0.0 | 0.00 | 0.00 | 0.00 | 26 | 1014.7 |
| 20260507080244 | 69 | 242 | 0.0 | 0.0 | 0.00 | 0.00 | 0.00 | 29 | 1014.7 |
| 20260507075740 | 69 | 243 | 0.0 | 0.0 | 0.00 | 0.00 | 0.00 | 26 | 1014.7 |
| 20260507075236 | 70 | 242 | 0.0 | 0.0 | 0.00 | 0.00 | 0.00 | 26 | 1014.8 |
| 20260507074732 | 71 | 242 | 0.0 | 0.9 | 0.00 | 0.00 | 0.00 | 26 | 1014.7 |
| 20260507074231 | 71 | 241 | 0.9 | 0.9 | 0.00 | 0.00 | 0.00 | 25 | 1014.7 |
| 20260507073727 | 71 | 256 | 0.0 | 0.9 | 0.00 | 0.00 | 0.00 | 25 | 1014.7 |
| 20260507073224 | 70 | 238 | 0.9 | 0.9 | 0.00 | 0.00 | 0.00 | 25 | 1014.7 |
| 20260507072722 | 71 | 233 | 0.9 | 0.9 | 0.00 | 0.00 | 0.00 | 25 | 1014.7 |
| 20260507072219 | 71 | 232 | 0.0 | 0.9 | 0.00 | 0.00 | 0.00 | 26 | 1014.7 |
| 20260507071717 | 71 | 231 | 0.9 | 1.7 | 0.00 | 0.00 | 0.00 | 25 | 1014.6 |
| 20260507071213 | 70 | 210 | 0.0 | 0.9 | 0.00 | 0.00 | 0.00 | 25 | 1014.7 |
| 20260507070710 | 70 | 210 | 0.9 | 0.9 | 0.00 | 0.00 | 0.00 | 26 | 1014.7 |
| 20260507070207 | 70 | 210 | 0.0 | 0.9 | 0.00 | 0.00 | 0.00 | 28 | 1014.6 |
| 20260507065703 | 71 | 210 | 0.0 | 0.0 | 0.00 | 0.00 | 0.00 | 26 | 1014.8 |
| 20260507065200 | 71 | 210 | 0.0 | 0.9 | 0.00 | 0.00 | 0.00 | 26 | 1014.4 |
| 20260507064657 | 71 | 210 | 0.0 | 0.9 | 0.00 | 0.00 | 0.00 | 26 | 1014.6 |
| 20260507064156 | 71 | 210 | 0.0 | 0.0 | 0.00 | 0.00 | 0.00 | 25 | 1014.7 |
| 20260507063653 | 71 | 210 | 0.0 | 0.0 | 0.00 | 0.00 | 0.00 | 26 | 1014.7 |
| 20260507063150 | 71 | 210 | 0.0 | 0.9 | 0.00 | 0.00 | 0.00 | 25 | 1014.8 |
| 20260507062646 | 72 | 210 | 0.0 | 0.0 | 0.00 | 0.00 | 0.00 | 26 | 1014.7 |
| 20260507062144 | 71 | 210 | 0.0 | 0.9 | 0.00 | 0.00 | 0.00 | 25 | 1014.7 |
| 20260507061642 | 71 | 210 | 0.0 | 0.9 | 0.00 | 0.00 | 0.00 | 25 | 1014.6 |
| 20260507061140 | 72 | 210 | 0.0 | 0.0 | 0.00 | 0.00 | 0.00 | 25 | 1014.8 |
| 20260507060638 | 71 | 210 | 0.0 | 0.0 | 0.00 | 0.00 | 0.00 | 25 | 1014.7 |
| 20260507060134 | 71 | 210 | 0.9 | 0.9 | 0.00 | 0.00 | 0.00 | 25 | 1014.8 |
| 20260507055629 | 71 | 210 | 0.0 | 0.0 | 0.00 | 0.00 | 0.00 | 25 | 1014.6 |
| 20260507055125 | 72 | 210 | 0.0 | 0.0 | 0.00 | 0.00 | 0.00 | 27 | 1014.7 |
| 20260507054621 | 72 | 210 | 0.0 | 0.0 | 0.00 | 0.00 | 0.00 | 25 | 1014.8 |
| 20260507054119 | 73 | 210 | 0.0 | 0.0 | 0.00 | 0.00 | 0.00 | 25 | 1014.7 |
| 20260507053617 | 73 | 210 | 0.0 | 0.0 | 0.00 | 0.00 | 0.00 | 24 | 1014.8 |
| 20260507053115 | 73 | 210 | 0.0 | 0.0 | 0.00 | 0.00 | 0.00 | 24 | 1014.8 |
| 20260507052613 | 73 | 210 | 0.0 | 0.9 | 0.00 | 0.00 | 0.00 | 25 | 1014.4 |
| 20260507052109 | 74 | 210 | 0.0 | 0.0 | 0.00 | 0.00 | 0.00 | 24 | 1014.7 |
| 20260507051606 | 75 | 210 | 0.0 | 0.0 | 0.00 | 0.00 | 0.00 | 24 | 1014.3 |
| 20260507051103 | 75 | 210 | 0.0 | 0.9 | 0.00 | 0.00 | 0.00 | 23 | 1014.2 |
| 20260507050600 | 75 | 210 | 0.0 | 0.0 | 0.00 | 0.00 | 0.00 | 23 | 1014.6 |
| 20260507050056 | 75 | 210 | 0.0 | 0.0 | 0.00 | 0.00 | 0.00 | 23 | 1014.3 |
| 20260507045553 | 75 | 193 | 0.0 | 1.7 | 0.00 | 0.00 | 0.00 | 23 | 1014.6 |
| 20260507045050 | 75 | 206 | 0.9 | 0.9 | 0.00 | 0.00 | 0.00 | 23 | 1014.3 |
| 20260507044547 | 75 | 205 | 0.0 | 0.9 | 0.00 | 0.00 | 0.00 | 22 | 1014.3 |
| 20260507044044 | 76 | 205 | 0.0 | 0.0 | 0.00 | 0.00 | 0.00 | 23 | 1014.4 |
| 20260507043539 | 76 | 205 | 0.0 | 0.0 | 0.00 | 0.00 | 0.00 | 23 | 1014.2 |
| 20260507043037 | 76 | 206 | 0.9 | 0.9 | 0.00 | 0.00 | 0.00 | 22 | 1014.6 |
| 20260507042533 | 76 | 205 | 0.0 | 1.7 | 0.00 | 0.00 | 0.00 | 23 | 1014.2 |
| 20260507042028 | 76 | 205 | 0.9 | 0.9 | 0.00 | 0.00 | 0.00 | 24 | 1014.3 |
| 20260507041526 | 76 | 234 | 0.9 | 0.9 | 0.00 | 0.00 | 0.00 | 24 | 1014.3 |
| 20260507041023 | 77 | 234 | 0.9 | 0.9 | 0.00 | 0.00 | 0.00 | 23 | 1014.2 |
| 20260507040519 | 77 | 237 | 1.7 | 2.6 | 0.00 | 0.00 | 0.00 | 22 | 1014.1 |
| 20260507040015 | 77 | 238 | 0.9 | 1.7 | 0.00 | 0.00 | 0.00 | 22 | 1014.0 |
| 20260507035511 | 78 | 216 | 0.0 | 0.9 | 0.00 | 0.00 | 0.00 | 22 | 1013.8 |
| 20260507035008 | 78 | 206 | 0.9 | 1.7 | 0.00 | 0.00 | 0.00 | 22 | 1013.9 |
| 20260507034505 | 78 | 202 | 0.0 | 0.9 | 0.00 | 0.00 | 0.00 | 22 | 1013.9 |
| 20260507034003 | 78 | 202 | 0.9 | 1.7 | 0.00 | 0.00 | 0.00 | 22 | 1013.9 |
| 20260507033500 | 78 | 200 | 0.9 | 0.9 | 0.00 | 0.00 | 0.00 | 22 | 1013.6 |
| 20260507032957 | 78 | 199 | 0.0 | 0.0 | 0.00 | 0.00 | 0.00 | 24 | 1013.5 |
| 20260507032454 | 78 | 199 | 0.9 | 0.9 | 0.00 | 0.00 | 0.00 | 21 | 1013.5 |
| 20260507031950 | 79 | 199 | 0.0 | 0.9 | 0.00 | 0.00 | 0.00 | 22 | 1013.4 |
| 20260507031447 | 79 | 199 | 0.9 | 0.9 | 0.00 | 0.00 | 0.00 | 20 | 1013.3 |
| 20260507030944 | 79 | 208 | 0.9 | 0.9 | 0.00 | 0.00 | 0.00 | 20 | 1013.1 |
| 20260507030441 | 80 | 241 | 0.9 | 1.7 | 0.00 | 0.00 | 0.00 | 20 | 1013.2 |
| 20260507025938 | 80 | 237 | 0.9 | 1.7 | 0.00 | 0.00 | 0.00 | 20 | 1013.2 |
| 20260507025435 | 80 | 224 | 0.9 | 0.9 | 0.00 | 0.00 | 0.00 | 20 | 1013.2 |
| 20260507024933 | 80 | 219 | 0.9 | 1.7 | 0.00 | 0.00 | 0.00 | 19 | 1013.0 |
| 20260507024430 | 80 | 223 | 0.9 | 1.7 | 0.00 | 0.00 | 0.00 | 19 | 1012.8 |
| 20260507023925 | 80 | 182 | 0.9 | 0.9 | 0.00 | 0.00 | 0.00 | 19 | 1013.0 |
| 20260507023423 | 81 | 228 | 0.9 | 0.9 | 0.00 | 0.00 | 0.00 | 19 | 1012.9 |
| 20260507022920 | 81 | 240 | 0.9 | 0.9 | 0.00 | 0.00 | 0.00 | 19 | 1012.8 |
| 20260507022417 | 81 | 239 | 0.9 | 1.7 | 0.00 | 0.00 | 0.00 | 19 | 1012.9 |
| 20260507021912 | 81 | 239 | 1.7 | 2.6 | 0.00 | 0.00 | 0.00 | 19 | 1012.8 |
| 20260507021408 | 82 | 192 | 0.9 | 1.7 | 0.00 | 0.00 | 0.00 | 19 | 1012.8 |
| 20260507020906 | 82 | 237 | 0.9 | 1.7 | 0.00 | 0.00 | 0.00 | 19 | 1012.8 |
| 20260507020402 | 82 | 243 | 0.9 | 1.7 | 0.00 | 0.00 | 0.00 | 18 | 1012.6 |
| 20260507015859 | 82 | 290 | 2.6 | 2.6 | 0.00 | 0.00 | 0.00 | 18 | 1012.9 |
| 20260507015357 | 82 | 312 | 1.7 | 2.6 | 0.00 | 0.00 | 0.00 | 18 | 1012.8 |
| 20260507014854 | 82 | 278 | 2.6 | 3.5 | 0.00 | 0.00 | 0.00 | 18 | 1012.9 |
| 20260507014350 | 83 | 217 | 3.5 | 3.5 | 0.00 | 0.00 | 0.00 | 18 | 1012.8 |
| 20260507013847 | 83 | 255 | 0.9 | 1.7 | 0.00 | 0.00 | 0.00 | 18 | 1012.7 |
| 20260507013344 | 83 | 238 | 0.9 | 1.7 | 0.00 | 0.00 | 0.00 | 18 | 1012.5 |
| 20260507012842 | 83 | 224 | 0.9 | 1.7 | 0.00 | 0.00 | 0.00 | 18 | 1012.7 |
| 20260507012337 | 83 | 239 | 2.6 | 3.5 | 0.00 | 0.00 | 0.00 | 17 | 1012.7 |
| 20260507011835 | 84 | 253 | 2.6 | 2.6 | 0.00 | 0.00 | 0.00 | 17 | 1012.7 |
| 20260507011332 | 84 | 137 | 0.0 | 1.7 | 0.00 | 0.00 | 0.00 | 18 | 1012.7 |
| 20260507010831 | 85 | 25 | 1.7 | 3.5 | 0.00 | 0.00 | 0.00 | 17 | 1012.7 |
| 20260507010327 | 85 | 197 | 0.9 | 1.7 | 0.00 | 0.00 | 0.00 | 17 | 1012.7 |
| 20260507005825 | 86 | 237 | 1.7 | 2.6 | 0.00 | 0.00 | 0.00 | 16 | 1012.6 |
| 20260507005321 | 86 | 250 | 1.7 | 2.6 | 0.00 | 0.00 | 0.00 | 17 | 1012.8 |
| 20260507004818 | 86 | 202 | 1.7 | 1.7 | 0.00 | 0.00 | 0.00 | 17 | 1012.7 |
| 20260507004315 | 86 | 271 | 1.7 | 2.6 | 0.00 | 0.00 | 0.00 | 17 | 1012.7 |
| 20260507003812 | 87 | 257 | 0.9 | 0.9 | 0.00 | 0.00 | 0.00 | 17 | 1012.6 |
| 20260507003307 | 86 | 267 | 0.0 | 1.7 | 0.00 | 0.00 | 0.00 | 17 | 1012.8 |
| 20260507002803 | 86 | 17 | 0.9 | 2.6 | 0.00 | 0.00 | 0.00 | 17 | 1012.6 |
| 20260507002259 | 86 | 12 | 0.9 | 1.7 | 0.00 | 0.00 | 0.00 | 17 | 1012.6 |
| 20260507001757 | 86 | 296 | 1.7 | 2.6 | 0.00 | 0.00 | 0.00 | 17 | 1012.7 |
| 20260507001254 | 87 | 256 | 1.7 | 3.5 | 0.00 | 0.00 | 0.00 | 16 | 1012.7 |
| 20260507000750 | 87 | 161 | 0.9 | 0.9 | 0.00 | 0.00 | 0.00 | 17 | 1012.7 |
| 20260507000246 | 86 | 211 | 1.7 | 1.7 | 0.00 | 0.00 | 0.00 | 17 | 1012.8 |
| 20260506235743 | 86 | 251 | 0.9 | 2.6 | 0.00 | 0.00 | 0.00 | 18 | 1012.8 |
| 20260506235238 | 86 | 128 | 1.7 | 2.6 | 0.00 | 0.00 | 0.00 | 17 | 1012.8 |
| 20260506234735 | 87 | 235 | 2.6 | 2.6 | 0.00 | 0.00 | 0.00 | 17 | 1012.9 |
| 20260506234232 | 87 | 28 | 1.7 | 1.7 | 0.00 | 0.00 | 0.00 | 17 | 1012.9 |
| 20260506233730 | 86 | 252 | 1.7 | 2.6 | 0.00 | 0.00 | 0.00 | 17 | 1012.9 |
| 20260506233226 | 86 | 64 | 0.9 | 1.7 | 0.00 | 0.00 | 0.00 | 18 | 1013.0 |
| 20260506232723 | 86 | 18 | 1.7 | 6.1 | 0.00 | 0.00 | 0.00 | 18 | 1013.1 |
| 20260506232218 | 86 | 78 | 0.0 | 2.6 | 0.00 | 0.00 | 0.00 | 18 | 1012.9 |
| 20260506231715 | 86 | 313 | 0.9 | 2.6 | 0.00 | 0.00 | 0.00 | 17 | 1013.0 |
| 20260506231214 | 86 | 269 | 1.7 | 3.5 | 0.00 | 0.00 | 0.00 | 17 | 1013.2 |
| 20260506230710 | 87 | 265 | 3.5 | 5.2 | 0.00 | 0.00 | 0.00 | 17 | 1013.4 |
| 20260506230207 | 86 | 148 | 0.9 | 0.9 | 0.00 | 0.00 | 0.00 | 17 | 1013.3 |
| 20260506225703 | 86 | 45 | 0.9 | 0.9 | 0.00 | 0.00 | 0.00 | 17 | 1013.2 |
| 20260506225200 | 86 | 189 | 1.7 | 1.7 | 0.00 | 0.00 | 0.00 | 17 | 1013.3 |
| 20260506224657 | 86 | 302 | 1.7 | 2.6 | 0.00 | 0.00 | 0.00 | 17 | 1013.4 |
| 20260506224154 | 87 | 256 | 2.6 | 2.6 | 0.00 | 0.00 | 0.00 | 17 | 1013.3 |
| 20260506223650 | 86 | 45 | 3.5 | 6.1 | 0.00 | 0.00 | 0.00 | 17 | 1013.3 |
| 20260506223146 | 86 | 77 | 0.9 | 0.9 | 0.00 | 0.00 | 0.00 | 17 | 1013.5 |
| 20260506222643 | 86 | 188 | 0.0 | 1.7 | 0.00 | 0.00 | 0.00 | 18 | 1013.6 |
| 20260506222139 | 86 | 281 | 2.6 | 2.6 | 0.00 | 0.00 | 0.00 | 17 | 1013.4 |
| 20260506221637 | 85 | 243 | 1.7 | 3.5 | 0.00 | 0.00 | 0.00 | 17 | 1013.6 |
| 20260506221135 | 86 | 73 | 1.7 | 5.2 | 0.00 | 0.00 | 0.00 | 18 | 1013.7 |
| 20260506220631 | 86 | 197 | 1.7 | 5.2 | 0.00 | 0.00 | 0.00 | 17 | 1013.8 |
| 20260506220126 | 85 | 39 | 1.7 | 1.7 | 0.00 | 0.00 | 0.00 | 17 | 1013.8 |
| 20260506215623 | 86 | 93 | 0.9 | 5.2 | 0.00 | 0.00 | 0.00 | 17 | 1013.9 |
| 20260506215119 | 86 | 142 | 0.0 | 1.7 | 0.00 | 0.00 | 0.00 | 17 | 1014.0 |
| 20260506214616 | 86 | 190 | 1.7 | 1.7 | 0.00 | 0.00 | 0.00 | 17 | 1014.1 |
| 20260506214113 | 86 | 254 | 2.6 | 3.5 | 0.00 | 0.00 | 0.00 | 17 | 1014.2 |
| 20260506213612 | 85 | 14 | 0.9 | 0.9 | 0.00 | 0.00 | 0.00 | 17 | 1014.2 |
| 20260506213108 | 86 | 288 | 1.7 | 2.6 | 0.00 | 0.00 | 0.00 | 17 | 1014.4 |
| 20260506212605 | 85 | 270 | 2.6 | 2.6 | 0.00 | 0.00 | 0.00 | 17 | 1014.4 |
| 20260506212100 | 84 | 208 | 1.7 | 2.6 | 0.00 | 0.00 | 0.00 | 17 | 1014.6 |
| 20260506211556 | 85 | 52 | 1.7 | 1.7 | 0.00 | 0.00 | 0.00 | 16 | 1014.9 |
| 20260506211054 | 84 | 159 | 0.9 | 3.5 | 0.00 | 0.00 | 0.00 | 17 | 1015.1 |
| 20260506210550 | 84 | 123 | 0.9 | 1.7 | 0.00 | 0.00 | 0.00 | 18 | 1014.9 |
| 20260506210046 | 84 | 124 | 0.9 | 0.9 | 0.00 | 0.00 | 0.00 | 18 | 1014.9 |
| 20260506205543 | 84 | 207 | 1.7 | 5.2 | 0.00 | 0.00 | 0.00 | 18 | 1015.0 |
| 20260506205038 | 83 | 28 | 1.7 | 2.6 | 0.00 | 0.00 | 0.00 | 18 | 1015.2 |
| 20260506204537 | 84 | 229 | 3.5 | 5.2 | 0.00 | 0.00 | 0.00 | 17 | 1015.2 |
| 20260506204033 | 83 | 135 | 1.7 | 7.0 | 0.00 | 0.00 | 0.00 | 18 | 1015.2 |
| 20260506203532 | 84 | 279 | 2.6 | 5.2 | 0.00 | 0.00 | 0.00 | 17 | 1015.3 |
| 20260506203028 | 84 | 279 | 2.6 | 6.1 | 0.00 | 0.00 | 0.00 | 17 | 1015.5 |
| 20260506202526 | 83 | 267 | 1.7 | 5.2 | 0.00 | 0.00 | 0.00 | 18 | 1015.4 |
| 20260506202022 | 82 | 231 | 0.9 | 1.7 | 0.00 | 0.00 | 0.00 | 19 | 1015.5 |
| 20260506201520 | 82 | 2 | 0.9 | 3.5 | 0.00 | 0.00 | 0.00 | 19 | 1015.5 |
| 20260506201016 | 82 | 321 | 1.7 | 2.6 | 0.00 | 0.00 | 0.00 | 18 | 1015.6 |
| 20260506200512 | 82 | 213 | 1.7 | 2.6 | 0.00 | 0.00 | 0.00 | 18 | 1015.6 |
| 20260506200009 | 83 | 29 | 0.9 | 2.6 | 0.00 | 0.00 | 0.00 | 18 | 1015.4 |
| 20260506195506 | 83 | 175 | 0.9 | 2.6 | 0.00 | 0.00 | 0.00 | 19 | 1015.6 |
| 20260506195002 | 83 | 43 | 0.9 | 2.6 | 0.00 | 0.00 | 0.00 | 19 | 1015.7 |
| 20260506194459 | 82 | 112 | 1.7 | 2.6 | 0.00 | 0.00 | 0.00 | 18 | 1015.5 |
| 20260506193956 | 81 | 86 | 0.9 | 2.6 | 0.00 | 0.00 | 0.00 | 18 | 1015.8 |
| 20260506193454 | 81 | 153 | 0.9 | 5.2 | 0.00 | 0.00 | 0.00 | 19 | 1015.7 |
| 20260506192950 | 82 | 245 | 1.7 | 2.6 | 0.00 | 0.00 | 0.00 | 18 | 1015.9 |
| 20260506192447 | 82 | 238 | 3.5 | 3.5 | 0.00 | 0.00 | 0.00 | 19 | 1016.0 |
| 20260506191943 | 81 | 154 | 0.9 | 2.6 | 0.00 | 0.00 | 0.00 | 19 | 1015.8 |
| 20260506191441 | 81 | 139 | 2.6 | 5.2 | 0.00 | 0.00 | 0.00 | 19 | 1016.0 |
| 20260506190937 | 80 | 152 | 1.7 | 2.6 | 0.00 | 0.00 | 0.00 | 21 | 1016.0 |
| 20260506190434 | 80 | 204 | 1.7 | 3.5 | 0.00 | 0.00 | 0.00 | 20 | 1016.2 |
| 20260506185931 | 81 | 215 | 2.6 | 5.2 | 0.00 | 0.00 | 0.00 | 20 | 1016.2 |
| 20260506185428 | 79 | 89 | 0.9 | 0.9 | 0.00 | 0.00 | 0.00 | 21 | 1016.3 |
| 20260506184925 | 80 | 49 | 1.7 | 2.6 | 0.00 | 0.00 | 0.00 | 21 | 1016.2 |
| 20260506184421 | 80 | 223 | 2.6 | 2.6 | 0.00 | 0.00 | 0.00 | 21 | 1016.4 |
| 20260506183919 | 80 | 231 | 1.7 | 3.5 | 0.00 | 0.00 | 0.00 | 22 | 1016.4 |
| 20260506183414 | 80 | 161 | 0.9 | 2.6 | 0.00 | 0.00 | 0.00 | 22 | 1016.5 |
| 20260506182912 | 80 | 141 | 0.9 | 1.7 | 0.00 | 0.00 | 0.00 | 22 | 1016.7 |
| 20260506182409 | 79 | 182 | 0.9 | 2.6 | 0.00 | 0.00 | 0.00 | 23 | 1016.8 |
| 20260506181906 | 80 | 325 | 0.9 | 6.1 | 0.00 | 0.00 | 0.00 | 22 | 1016.8 |
| 20260506181404 | 80 | 191 | 1.7 | 1.7 | 0.00 | 0.00 | 0.00 | 22 | 1016.8 |
| 20260506180900 | 79 | 296 | 1.7 | 2.6 | 0.00 | 0.00 | 0.00 | 23 | 1017.0 |
| 20260506180356 | 78 | 128 | 0.9 | 1.7 | 0.00 | 0.00 | 0.00 | 24 | 1017.0 |
| 20260506175853 | 78 | 52 | 1.7 | 1.7 | 0.00 | 0.00 | 0.00 | 23 | 1016.8 |
| 20260506175350 | 78 | 97 | 0.9 | 1.7 | 0.00 | 0.00 | 0.00 | 24 | 1016.7 |
| 20260506174847 | 78 | 274 | 0.9 | 2.6 | 0.00 | 0.00 | 0.00 | 24 | 1016.9 |
| 20260506174344 | 78 | 326 | 2.6 | 2.6 | 0.00 | 0.00 | 0.00 | 25 | 1017.1 |
| 20260506173842 | 77 | 41 | 0.0 | 3.5 | 0.00 | 0.00 | 0.00 | 25 | 1016.9 |
| 20260506173338 | 77 | 153 | 0.9 | 1.7 | 0.00 | 0.00 | 0.00 | 25 | 1017.0 |
| 20260506172836 | 77 | 235 | 2.6 | 2.6 | 0.00 | 0.00 | 0.00 | 25 | 1016.8 |
| 20260506172332 | 77 | 0 | 3.5 | 6.1 | 0.00 | 0.00 | 0.00 | 25 | 1016.8 |
| 20260506171830 | 76 | 71 | 0.9 | 1.7 | 0.00 | 0.00 | 0.00 | 25 | 1016.8 |
| 20260506171327 | 76 | 66 | 1.7 | 3.5 | 0.00 | 0.00 | 0.00 | 26 | 1016.9 |
| 20260506170825 | 75 | 51 | 1.7 | 3.5 | 0.00 | 0.00 | 0.00 | 26 | 1017.0 |
| 20260506170320 | 75 | 234 | 1.7 | 2.6 | 0.00 | 0.00 | 0.00 | 27 | 1016.9 |
| 20260506165819 | 75 | 252 | 1.7 | 3.5 | 0.00 | 0.00 | 0.00 | 28 | 1016.6 |
| 20260506165317 | 75 | 32 | 1.7 | 2.6 | 0.00 | 0.00 | 0.00 | 27 | 1016.8 |
| 20260506164813 | 75 | 351 | 1.7 | 3.5 | 0.00 | 0.00 | 0.00 | 27 | 1016.8 |
| 20260506164310 | 74 | 357 | 0.9 | 2.6 | 0.00 | 0.00 | 0.00 | 28 | 1016.8 |
| 20260506163807 | 74 | 17 | 3.5 | 5.2 | 0.00 | 0.00 | 0.00 | 28 | 1016.6 |
| 20260506163301 | 73 | 248 | 1.7 | 2.6 | 0.00 | 0.00 | 0.00 | 29 | 1016.7 |
| 20260506162757 | 73 | 2 | 0.0 | 2.6 | 0.00 | 0.00 | 0.00 | 29 | 1016.7 |
| 20260506162256 | 72 | 19 | 0.9 | 2.6 | 0.00 | 0.00 | 0.00 | 30 | 1016.7 |
| 20260506161753 | 72 | 257 | 1.7 | 2.6 | 0.00 | 0.00 | 0.00 | 31 | 1016.6 |
| 20260506161250 | 72 | 269 | 1.7 | 3.5 | 0.00 | 0.00 | 0.00 | 30 | 1016.7 |
| 20260506160747 | 72 | 165 | 0.9 | 3.5 | 0.00 | 0.00 | 0.00 | 31 | 1016.7 |
| 20260506160244 | 71 | 353 | 1.7 | 2.6 | 0.00 | 0.00 | 0.00 | 31 | 1016.6 |
| 20260506155743 | 70 | 7 | 0.9 | 2.6 | 0.00 | 0.00 | 0.00 | 33 | 1016.7 |
| 20260506155239 | 70 | 20 | 1.7 | 2.6 | 0.00 | 0.00 | 0.00 | 32 | 1016.8 |